FENGYUN 1C DEB, 30621

Orbit data source: Space-Track

FENGYUN 1C DEB, 30621 is space debris in SSO originally from a launch on Mon, 10 May 1999 UTC launched from the Taiyaun Space Center, China (TSC). Fengyun 1C debris stems from the Chinese weather satellite Fengyun-1C, which was intentionally destroyed by a Chinese anti-satellite missile in 2007. This event dramatically increased the amount of space debris, with thousands of trackable fragments posing hazards to satellites and human spaceflight. The Fengyun 1C debris cloud has become a focal point in discussions about space sustainability and the need for international regulations to prevent the creation of new debris.

Loading next visibility...
Identifier
30621, 1999-025ANC
Orbit
SSO
Country
Flag of CNCN / PRC
Related business
Manufacturer
Unknown
Mission
Spacecraft
Bus & Motor
Unknown
Mass
Unknown
Launch date (UTC)
1999-05-10 (27 years ago)
Launch vehicle
Unknown
Launch site
Taiyaun Space Center, China (TSC)
Object type
Payload
Rocket body
Debris
Shape & HBR
Unknown shape, 0.1 m
Radar Cross Section
Medium (>0.1 m² and <1 m²)

Expand to show TLE details & history
Last TLE update: 1 day ago

TLE from 1 day ago
0 FENGYUN 1C DEB
1 30621U 99025ANC 26255.28860455  .00001861  00000-0  10861-2 0  9999
2 30621  98.7018 192.5190 0132483 258.0303 258.4970 14.05362386994304
Epoch: 2026-09-12T06:55Z
TLE epoch observation values (Epoch: 2026-09-12T06:55:35.433Z)
Latitude
24.67606°
Longitude
-78.66724°
Altitude
898.638 km
Speed
7.394 km/s
True Right ascension
01h 06m 07s
True Declination
24° 32' 54"
Sunlit
Object was in full shadow at epoch
Visualization orbit readout
Latitude
Unknown
Longitude
Unknown
Altitude
Unknown
Speed
Unknown
Apparent Right ascension
Unknown
Apparent Declination
Unknown
Sunlit
N/A
Visualization observer readout
Local Sidereal Time
09:28:48
Azimuth
Unknown
Elevation
Unknown
Doppler factor
Unknown
Orbital elements
Apogee altitude
968.52 km
Perigee altitude
776.404 km
Semi-major axis
7,250.599 km
Eccentricity
0.01325
Inclination
98.7018°
RAAN
192.519°
Arg. of periapsis
258.0303°
True anomaly
257.01441°
Mean anomaly
258.497°
Eccentric anomaly
257.7552°
Mean motion
3.51546 °/min
Orbital period
102.4 mins
BSTAR
0.0010861
Loading maneuver chart data...
Computing Atmospheric mass density...

Documentation

Showing up to 5 results
|